Flag for Switzerland Weather past 2 weeks in Emmen, Lucerne, Switzerland

Now
47 °F

Cool.


Feels Like: 47 °F
Forecast: 32 / 42 °F
Wind: 2 mph from South

Location: Giswil

Current Time: Dec 19, 2014 at 4:59:25 PM

Latest Report: Dec 19, 2014 at 4:00 PM


Visibility: N/A

Pressure: 30.20 "Hg

Humidity: 100%

Dew point: 47 °F

Location of EmmenLocation

Historic Weather in Emmen — Graph

°F

Emmen temperature yesterday

Maximum temperature yesterday: 48 °F (at 1:00 PM)
Minimum temperature yesterday: 39 °F (at 4:00 AM)
Average temperature yesterday: 43 °F

Past Weeks' High & Low Weather Summary

 TemperatureHumidityPressure
High50 °F (Dec 15, 2:00 PM)100% (Dec 4, 7:00 PM)30.49 "Hg (Dec 4, 7:00 PM)
Low26 °F (Dec 12, 8:00 AM)48% (Dec 11, 7:00 PM)29.90 "Hg (Dec 12, 9:00 PM)
Average39 °F95%30.14 "Hg
* Reported Dec 4 3:00 PM — Dec 19 3:00 PM, Emmen, Weather by CustomWeather, © 2014

Note: Actual official high and low records may vary slightly from our data, if they occured in-between our weather recording intervals... More about our weather records

Advertising

Emmen weather history for previous 24 hours

 ConditionsComfort  
Time TempWeatherWind HumidityBarometerVisibility
3:00 PM
Dec 19
49 °FCool.1 mph97%30.20 "HgN/A
2:00 PM47 °FCool.1 mph100%30.23 "HgN/A
1:00 PM47 °FCool.2 mph100%30.24 "HgN/A
12:00 PM42 °FQuite cool.3 mph100%30.28 "HgN/A
11:00 AM39 °FChilly.3 mph100%30.29 "HgN/A
10:00 AM36 °FChilly.1 mph100%30.31 "HgN/A
9:00 AM37 °FChilly.2 mph100%30.32 "HgN/A
8:00 AM38 °FChilly.1 mph100%30.30 "HgN/A
7:00 AM39 °FChilly.3 mph100%30.30 "HgN/A
6:00 AM39 °FChilly.1 mph100%30.29 "HgN/A
5:00 AM41 °FQuite cool.2 mph100%30.29 "HgN/A
3:00 AM42 °FQuite cool.2 mph100%30.32 "HgN/A
2:00 AM44 °FQuite cool.No wind100%30.30 "HgN/A
1:00 AM44 °FQuite cool.1 mph100%30.29 "HgN/A
12:00 AM44 °FQuite cool.1 mph100%30.29 "HgN/A
11:00 PM
Dec 18
43 °FQuite cool.1 mph100%30.31 "HgN/A
9:00 PM44 °FQuite cool.No wind100%30.28 "HgN/A
8:00 PM45 °FQuite cool.1 mph100%30.27 "HgN/A
7:00 PM45 °FCool.1 mph100%30.26 "HgN/A
6:00 PM45 °FCool.2 mph100%30.24 "HgN/A
5:00 PM46 °FCool.1 mph100%30.24 "HgN/A
4:00 PM46 °FCool.2 mph100%30.21 "HgN/A
Weather by CustomWeather, © 2014

See weather overviewHow to use our weather pages